Location: Madrid
(40.4000°N, 3.6830°W)
Time: 07:19:34
(UTC+01:00)

ISS - Pass Details

Date: 26 July 2017
Orbit: 403 x 407 km, 51.6° (Epoch: 19 February)

Event Time Altitude Azimuth Distance (km) Brightness Sun altitude
Rises 02:15:55 0° 310° (NW) 2,322 0.6 -30.2°
Reaches altitude 10° 02:18:51 10° 339° (NNW) 1,464 -0.2 -30.2°
Enters shadow 02:20:14 13° 4° (N) 1,286 -0.5 -30.2°
